Hourly Data Report for July 12, 2021

KUGLUKTUK A
NUNAVUT
Current Station Operator: NAVCAN

67°49'00.000" N
115°08'38.000" W
22.60 m
2300903
71938
YCO

Download Data

Hourly Data (July 2021)
Hourly Data Report for July 12, 2021
TIME
LST
Temp Definition
°C
Dew Point Definition
°C
Rel Hum Definition
%
Precip. Amount Definition
mm

Wind Dir Definition
10's deg

Wind Spd Definition
km/h
Visibility Definition
km
Stn Press Definition
kPa
Hmdx Definition


Wind Chill Definition


Weather Definition


00:00 9.8 7.7 87   34 30 24.1 100.75     LegendNANA
01:00 10.1 7.6 84   24 9 24.1 100.85     LegendNANA
02:00 9.6 7.3 86   23 8 24.1 100.91     Cloudy
03:00 8.3 5.6 83   34 28 24.1 100.98     LegendNANA
04:00 6.5 3.5 81   34 39 24.1 101.09     LegendNANA
05:00 5.0 2.6 84   34 27 16.1 101.15     Rain
06:00 4.0 2.2 88   35 26 16.1 101.25     Rain, Drizzle
07:00 4.6 2.5 86   34 19 19.3 101.29     Drizzle
08:00 5.6 2.3 79   32 11 24.1 101.30     Cloudy
09:00 6.1 2.4 77   35 13 24.1 101.32     LegendNANA
10:00 6.8 2.6 75   23 5 24.1 101.32     LegendNANA
11:00 7.6 2.8 72   24 3 24.1 101.29     Cloudy
12:00 9.3 2.9 64   25 11 24.1 101.27     LegendNANA
13:00 10.2 3.4 63   25 17 24.1 101.23     LegendNANA
14:00 11.2 3.8 60   28 17 24.1 101.22     Mostly Cloudy
15:00 12.3 4.0 57   27 15 24.1 101.14     LegendNANA
16:00 13.4 4.8 56   36 5 24.1 101.08     LegendNANA
17:00 12.3 5.5 63   1 16 24.1 101.06     Mostly Cloudy
18:00 11.4 4.8 64   4 16 24.1 101.03     LegendNANA
19:00 9.4 5.3 75   7 14 24.1 101.00     LegendNANA
20:00 9.6 5.1 73   10 17 24.1 100.93     Cloudy
21:00 10.2 5.6 73   12 13 24.1 100.84     LegendNANA
22:00 11.0 5.8 70   14 5 24.1 100.76     LegendNANA
23:00 11.5 7.3 75   25 12 24.1 100.69     Cloudy

Notes on Data Quality.

Legend

  • E = Estimated
  • M = Missing
  • NA = Not Available*
  • [empty] = Indicates an unobserved value
Date modified: